Time,TemperatureF,DewpointF,PressureIn,WindDirection,WindDirectionDegrees,WindSpeedMPH,WindSpeedGustMPH,Humidity,HourlyPrecipIn,Conditions,Clouds,dailyrainin,SoftwareType,DateUTC
2013-06-03 00:09:00,63.2,60.0,29.88,SW,226,0.0,0.0,88,0.00,,,0.00,weatherlink.com 1.10,2013-06-03 04:09:00,
2013-06-03 00:24:00,63.3,60.0,29.88,SW,226,0.0,0.0,89,0.00,,,0.00,weatherlink.com 1.10,2013-06-03 04:24:00,
2013-06-03 00:39:00,63.5,60.0,29.88,SW,227,0.0,1.0,89,0.00,,,0.00,weatherlink.com 1.10,2013-06-03 04:39:00,
2013-06-03 00:54:00,63.7,61.0,29.89,SW,226,0.0,0.0,89,0.00,,,0.00,weatherlink.com 1.10,2013-06-03 04:54:00,
2013-06-03 01:09:00,63.8,61.0,29.89,SW,226,0.0,0.0,89,0.00,,,0.00,weatherlink.com 1.10,2013-06-03 05:09:00,
2013-06-03 01:24:00,64.1,61.0,29.89,SW,226,0.0,0.0,89,0.00,,,0.00,weatherlink.com 1.10,2013-06-03 05:24:00,
2013-06-03 01:39:00,64.2,61.0,29.88,SW,226,0.0,0.0,88,0.00,,,0.00,weatherlink.com 1.10,2013-06-03 05:39:00,
2013-06-03 01:54:00,64.4,61.0,29.88,SW,226,0.0,0.0,87,0.00,,,0.00,weatherlink.com 1.10,2013-06-03 05:54:00,
2013-06-03 02:09:00,64.6,60.0,29.88,SW,226,0.0,0.0,86,0.00,,,0.00,weatherlink.com 1.10,2013-06-03 06:09:00,
2013-06-03 02:24:00,64.6,61.0,29.89,SW,226,0.0,0.0,87,0.00,,,0.00,weatherlink.com 1.10,2013-06-03 06:24:00,
2013-06-03 02:39:00,64.3,60.0,29.89,SW,227,0.0,0.0,87,0.00,,,0.00,weatherlink.com 1.10,2013-06-03 06:39:00,
2013-06-03 02:54:00,63.8,60.0,29.88,SW,226,0.0,0.0,87,0.00,,,0.00,weatherlink.com 1.10,2013-06-03 06:54:00,
2013-06-03 03:09:00,63.5,60.0,29.89,SW,226,0.0,0.0,87,0.00,,,0.00,weatherlink.com 1.10,2013-06-03 07:09:00,
2013-06-03 03:24:00,63.2,60.0,29.89,SW,226,0.0,0.0,88,0.00,,,0.00,weatherlink.com 1.10,2013-06-03 07:24:00,
2013-06-03 03:39:00,63.0,59.0,29.89,SW,226,0.0,0.0,88,0.00,,,0.00,weatherlink.com 1.10,2013-06-03 07:39:00,
2013-06-03 03:54:00,63.1,60.0,29.89,SW,226,0.0,0.0,88,0.00,,,0.00,weatherlink.com 1.10,2013-06-03 07:54:00,
2013-06-03 04:09:00,63.2,60.0,29.89,SW,226,0.0,0.0,88,0.00,,,0.00,weatherlink.com 1.10,2013-06-03 08:09:00,
2013-06-03 04:24:00,63.2,60.0,29.89,SW,232,0.0,0.0,88,0.00,,,0.00,weatherlink.com 1.10,2013-06-03 08:24:00,
2013-06-03 04:40:00,63.5,59.0,29.89,WSW,248,0.0,0.0,86,0.00,,,0.00,weatherlink.com 1.10,2013-06-03 08:40:00,
2013-06-03 04:55:00,63.5,59.0,29.90,WSW,248,0.0,1.0,86,0.00,,,0.00,weatherlink.com 1.10,2013-06-03 08:55:00,
2013-06-03 05:10:00,63.4,59.0,29.90,NE,40,0.0,1.0,85,0.00,,,0.00,weatherlink.com 1.10,2013-06-03 09:10:00,
2013-06-03 05:25:00,63.3,59.0,29.90,WSW,254,0.0,4.0,85,0.00,,,0.00,weatherlink.com 1.10,2013-06-03 09:25:00,
2013-06-03 05:40:00,63.0,59.0,29.91,WNW,293,0.0,3.0,85,0.00,,,0.00,weatherlink.com 1.10,2013-06-03 09:40:00,
2013-06-03 05:55:00,62.6,58.0,29.91,WSW,255,0.0,2.0,86,0.00,,,0.00,weatherlink.com 1.10,2013-06-03 09:55:00,
2013-06-03 06:10:00,62.3,58.0,29.91,NNE,15,1.0,2.0,86,0.00,,,0.00,weatherlink.com 1.10,2013-06-03 10:10:00,
2013-06-03 06:25:00,62.1,58.0,29.91,ESE,103,0.0,2.0,86,0.00,,,0.00,weatherlink.com 1.10,2013-06-03 10:25:00,
2013-06-03 06:40:00,62.0,58.0,29.91,ENE,65,0.0,1.0,87,0.00,,,0.00,weatherlink.com 1.10,2013-06-03 10:40:00,
2013-06-03 06:55:00,62.0,58.0,29.92,WSW,255,0.0,1.0,86,0.00,,,0.00,weatherlink.com 1.10,2013-06-03 10:55:00,
2013-06-03 07:10:00,62.0,58.0,29.92,NNE,29,0.0,1.0,86,0.00,,,0.00,weatherlink.com 1.10,2013-06-03 11:10:00,
2013-06-03 07:25:00,62.0,58.0,29.92,ENE,78,1.0,2.0,86,0.00,,,0.00,weatherlink.com 1.10,2013-06-03 11:25:00,
2013-06-03 07:40:00,62.3,58.0,29.92,NNE,33,0.0,1.0,85,0.00,,,0.00,weatherlink.com 1.10,2013-06-03 11:40:00,
2013-06-03 07:55:00,62.7,58.0,29.93,North,356,0.0,1.0,85,0.00,,,0.00,weatherlink.com 1.10,2013-06-03 11:55:00,
2013-06-03 08:10:00,63.0,58.0,29.93,NNE,20,2.0,2.0,83,0.00,,,0.00,weatherlink.com 1.10,2013-06-03 12:10:00,
2013-06-03 08:25:00,63.1,58.0,29.93,North,360,1.0,3.0,82,0.00,,,0.00,weatherlink.com 1.10,2013-06-03 12:25:00,
2013-06-03 08:40:00,63.6,58.0,29.93,NW,306,0.0,4.0,83,0.00,,,0.00,weatherlink.com 1.10,2013-06-03 12:40:00,
2013-06-03 08:55:00,64.1,58.0,29.94,West,278,0.0,5.0,80,0.00,,,0.00,weatherlink.com 1.10,2013-06-03 12:55:00,
2013-06-03 09:10:00,63.9,58.0,29.94,NNE,27,0.0,4.0,80,0.00,,,0.00,weatherlink.com 1.10,2013-06-03 13:10:00,
2013-06-03 09:25:00,63.7,57.0,29.94,ENE,70,1.0,4.0,80,0.00,,,0.00,weatherlink.com 1.10,2013-06-03 13:25:00,
2013-06-03 09:40:00,63.7,57.0,29.95,NNE,16,0.0,4.0,80,0.00,,,0.00,weatherlink.com 1.10,2013-06-03 13:40:00,
2013-06-03 09:55:00,63.8,57.0,29.95,WNW,293,0.0,3.0,79,0.00,,,0.00,weatherlink.com 1.10,2013-06-03 13:55:00,
2013-06-03 10:10:00,63.2,57.0,29.95,ENE,63,2.0,3.0,79,0.00,,,0.00,weatherlink.com 1.10,2013-06-03 14:10:00,
2013-06-03 10:25:00,62.8,57.0,29.95,NNW,342,0.0,4.0,80,0.00,,,0.00,weatherlink.com 1.10,2013-06-03 14:25:00,
2013-06-03 10:40:00,62.8,57.0,29.95,East,98,1.0,5.0,80,0.00,,,0.00,weatherlink.com 1.10,2013-06-03 14:40:00,
2013-06-03 10:55:00,63.4,57.0,29.96,West,266,3.0,3.0,79,0.00,,,0.00,weatherlink.com 1.10,2013-06-03 14:55:00,
2013-06-03 11:10:00,63.3,56.0,29.96,WSW,250,1.0,4.0,77,0.00,,,0.00,weatherlink.com 1.10,2013-06-03 15:10:00,
2013-06-03 11:25:00,64.1,57.0,29.96,ENE,64,0.0,3.0,77,0.00,,,0.00,weatherlink.com 1.10,2013-06-03 15:25:00,
2013-06-03 11:40:00,64.6,57.0,29.96,West,274,1.0,7.0,76,0.00,,,0.00,weatherlink.com 1.10,2013-06-03 15:40:00,
2013-06-03 11:55:00,64.2,56.0,29.96,East,89,0.0,3.0,75,0.00,,,0.00,weatherlink.com 1.10,2013-06-03 15:55:00,
2013-06-03 12:10:00,63.9,57.0,29.96,ESE,115,3.0,4.0,77,0.00,,,0.00,weatherlink.com 1.10,2013-06-03 16:10:00,
2013-06-03 12:25:00,64.3,56.0,29.96,WSW,248,1.0,4.0,75,0.00,,,0.00,weatherlink.com 1.10,2013-06-03 16:25:00,
2013-06-03 12:40:00,64.0,56.0,29.97,West,263,1.0,3.0,75,0.00,,,0.00,weatherlink.com 1.10,2013-06-03 16:40:00,
2013-06-03 12:55:00,64.2,56.0,29.97,SW,225,1.0,4.0,75,0.00,,,0.00,weatherlink.com 1.10,2013-06-03 16:55:00,
2013-06-03 13:10:00,65.1,57.0,29.97,WSW,244,1.0,4.0,74,0.00,,,0.00,weatherlink.com 1.10,2013-06-03 17:10:00,
2013-06-03 13:25:00,65.0,56.0,29.97,NW,311,1.0,3.0,72,0.00,,,0.00,weatherlink.com 1.10,2013-06-03 17:25:00,
2013-06-03 13:40:00,65.2,57.0,29.97,West,266,0.0,2.0,74,0.00,,,0.00,weatherlink.com 1.10,2013-06-03 17:40:00,
2013-06-03 13:55:00,64.8,56.0,29.96,NNE,24,0.0,4.0,73,0.00,,,0.00,weatherlink.com 1.10,2013-06-03 17:55:00,
2013-06-03 14:10:00,66.7,57.0,29.96,West,259,1.0,5.0,72,0.00,,,0.00,weatherlink.com 1.10,2013-06-03 18:10:00,
2013-06-03 14:25:00,65.1,55.0,29.96,North,360,2.0,7.0,71,0.00,,,0.00,weatherlink.com 1.10,2013-06-03 18:25:00,
2013-06-03 14:40:00,65.5,56.0,29.96,WNW,288,0.0,4.0,71,0.00,,,0.00,weatherlink.com 1.10,2013-06-03 18:40:00,
2013-06-03 14:55:00,64.5,55.0,29.96,North,359,1.0,2.0,71,0.00,,,0.00,weatherlink.com 1.10,2013-06-03 18:55:00,
2013-06-03 15:10:00,64.4,56.0,29.96,WNW,283,1.0,3.0,73,0.00,,,0.00,weatherlink.com 1.10,2013-06-03 19:10:00,
2013-06-03 15:25:00,65.3,56.0,29.96,South,180,1.0,2.0,71,0.00,,,0.00,weatherlink.com 1.10,2013-06-03 19:25:00,
2013-06-03 15:40:00,66.2,57.0,29.96,WSW,243,0.0,4.0,71,0.00,,,0.00,weatherlink.com 1.10,2013-06-03 19:40:00,
2013-06-03 15:55:00,67.2,57.0,29.96,SW,217,0.0,3.0,69,0.00,,,0.00,weatherlink.com 1.10,2013-06-03 19:55:00,
2013-06-03 16:10:00,69.1,56.0,29.95,WSW,257,3.0,5.0,64,0.00,,,0.00,weatherlink.com 1.10,2013-06-03 20:10:00,
2013-06-03 16:25:00,68.4,55.0,29.95,WNW,290,2.0,4.0,63,0.00,,,0.00,weatherlink.com 1.10,2013-06-03 20:25:00,
2013-06-03 16:41:00,68.6,54.0,29.95,SSW,207,2.0,5.0,61,0.00,,,0.00,weatherlink.com 1.10,2013-06-03 20:41:00,
2013-06-03 16:56:00,68.7,55.0,29.95,SW,222,1.0,3.0,61,0.00,,,0.00,weatherlink.com 1.10,2013-06-03 20:56:00,
2013-06-03 17:11:00,67.9,53.0,29.95,WSW,245,2.0,3.0,60,0.00,,,0.00,weatherlink.com 1.10,2013-06-03 21:11:00,
2013-06-03 17:26:00,67.4,53.0,29.95,SW,233,1.0,3.0,61,0.00,,,0.00,weatherlink.com 1.10,2013-06-03 21:26:00,
2013-06-03 17:41:00,66.9,54.0,29.94,WSW,242,1.0,1.0,63,0.00,,,0.00,weatherlink.com 1.10,2013-06-03 21:41:00,
2013-06-03 17:56:00,67.0,54.0,29.94,NNE,32,0.0,5.0,63,0.00,,,0.00,weatherlink.com 1.10,2013-06-03 21:56:00,
2013-06-03 18:11:00,66.0,52.0,29.94,SW,218,0.0,5.0,62,0.00,,,0.00,weatherlink.com 1.10,2013-06-03 22:11:00,
2013-06-03 18:26:00,69.2,54.0,29.93,West,276,1.0,3.0,58,0.00,,,0.00,weatherlink.com 1.10,2013-06-03 22:26:00,
2013-06-03 18:41:00,70.8,52.0,29.93,NE,53,0.0,2.0,52,0.00,,,0.00,weatherlink.com 1.10,2013-06-03 22:41:00,
2013-06-03 18:56:00,70.1,52.0,29.94,SW,236,2.0,3.0,52,0.00,,,0.00,weatherlink.com 1.10,2013-06-03 22:56:00,
2013-06-03 19:11:00,67.5,51.0,29.95,West,278,0.0,3.0,55,0.00,,,0.00,weatherlink.com 1.10,2013-06-03 23:11:00,
2013-06-03 19:26:00,66.2,49.0,29.95,WNW,284,1.0,2.0,55,0.00,,,0.00,weatherlink.com 1.10,2013-06-03 23:26:00,
2013-06-03 19:41:00,65.0,51.0,29.97,WNW,298,0.0,2.0,60,0.00,,,0.00,weatherlink.com 1.10,2013-06-03 23:41:00,
2013-06-03 20:11:00,62.2,50.0,29.98,SE,125,0.0,1.0,64,0.00,,,0.00,weatherlink.com 1.10,2013-06-04 00:11:00,
2013-06-03 20:41:00,59.2,48.0,29.99,SE,126,0.0,0.0,67,0.00,,,0.00,weatherlink.com 1.10,2013-06-04 00:41:00,
2013-06-03 20:56:00,58.0,48.0,29.99,SE,126,0.0,0.0,70,0.00,,,0.00,weatherlink.com 1.10,2013-06-04 00:56:00,
2013-06-03 21:11:00,56.4,48.0,30.00,SE,124,0.0,0.0,74,0.00,,,0.00,weatherlink.com 1.10,2013-06-04 01:11:00,
2013-06-03 21:26:00,55.1,48.0,30.01,SE,124,0.0,0.0,76,0.00,,,0.00,weatherlink.com 1.10,2013-06-04 01:26:00,
2013-06-03 21:41:00,53.9,47.0,30.01,SE,124,0.0,0.0,78,0.00,,,0.00,weatherlink.com 1.10,2013-06-04 01:41:00,
2013-06-03 21:56:00,52.9,47.0,30.01,SE,124,0.0,0.0,80,0.00,,,0.00,weatherlink.com 1.10,2013-06-04 01:56:00,
2013-06-03 22:11:00,52.4,46.0,30.02,SE,124,0.0,0.0,80,0.00,,,0.00,weatherlink.com 1.10,2013-06-04 02:11:00,
2013-06-03 22:26:00,52.3,45.0,30.03,WSW,238,0.0,1.0,77,0.00,,,0.00,weatherlink.com 1.10,2013-06-04 02:26:00,
2013-06-03 22:56:00,53.0,43.0,30.04,NNE,13,0.0,1.0,70,0.00,,,0.00,weatherlink.com 1.10,2013-06-04 02:56:00,
2013-06-03 23:11:00,52.8,43.0,30.04,ESE,117,0.0,1.0,69,0.00,,,0.00,weatherlink.com 1.10,2013-06-04 03:11:00,
2013-06-03 23:26:00,52.6,43.0,30.05,WNW,300,0.0,1.0,69,0.00,,,0.00,weatherlink.com 1.10,2013-06-04 03:26:00,
2013-06-03 23:41:00,52.3,42.0,30.05,ESE,106,0.0,1.0,69,0.00,,,0.00,weatherlink.com 1.10,2013-06-04 03:41:00,
2013-06-03 23:57:00,51.6,42.0,30.06,SE,142,0.0,1.0,70,0.00,,,0.00,weatherlink.com 1.10,2013-06-04 03:57:00,